Regional Weather Roundup
Issued by NWS State College, PA

Home | Current Version | Previous Version | Graphics & Text | Print | Product List | Glossary Off
Versions: 1 2 3 4 5 6 7 8 9 10 11 12 13 14 15 16 17 18 19 20 21 22 23 24 25 26 27 28 29 30 31 32 33 34 35 36 37 38 39 40 41 42 43 44 45 46 47 48 49 50

461
ASUS41 KCTP 120303
RWRCTP

REGIONAL WEATHER ROUNDUP
NATIONAL WEATHER SERVICE STATE COLLEGE PA
1000 PM EST THU FEB 11 2016

Note: "fair" indicates few or no clouds below 12,000 feet with no
significant weather and/or obstructions to visibility.

* = STATION THAT DOES NOT REPORT PRECIPITATION /E.G. RAIN...SNOW...ETC/
    THUNDER OR FOG.

PAZ002>004-007>009-013>016-020>023-029>032-120400-
WESTERN PENNSYLVANIA

CITY           SKY/WX    TMP DP  RH WIND       PRES   REMARKS
ERIE           MOCLDY    17   2  51 W10       30.25R WCI   5
MEADVILLE      CLOUDY    11   2  67 SW3       30.19S
FRANKLIN*      CLEAR      9   1  72 SW5       30.20S WCI   0
NEW CASTLE     FAIR       6   3  87 SW3       30.25S
BEAVER COUNTY  NOT AVBL
BUTLER*        CLEAR     10   5  79 CALM      30.26S
PITTSBURGH INT PTCLDY    11  -2  56 W3        30.24S
PITTSBURGH     CLEAR     14  -1  51 W7        30.24S WCI   4
INDIANA*       MOCLDY    12   7  79 VRB7      30.25R WCI   2
LATROBE        CLEAR      9  -2  61 SW6       30.26S WCI  -1
WASHINGTON CO* CLEAR      5   0  78 CALM      30.25S
$$

PAZ004>006-010>012-017>019-024>028-033>037-041-042-045-046-049>053-120400-
CENTRAL PENNSYLVANIA

CITY           SKY/WX    TMP DP  RH WIND       PRES   REMARKS
BRADFORD       LGT SNOW   8   3  80 W7        30.09R WCI  -3
DUBOIS         PTCLDY     5   0  79 W8        30.14S WCI  -8
CLEARFIELD     CLEAR      9  -1  64 SW6       30.17S WCI  -1
JOHNSTOWN      FLURRIES  10   0  63 W14       30.11S WCI  -6
ALTOONA        MOCLDY    13   4  67 W9        30.19R WCI   1
STATE COLLEGE  CLEAR     12   0  58 W12       30.20R WCI  -2
WILLIAMSPORT   PTCLDY    16   7  67 NW14      30.21R WCI   2
SELINSGROVE    CLEAR     17  -3  41 W9        30.23R WCI   6
FT INDIANTOWN  CLEAR     18  -3  40 W13       30.22R WCI   4
CAPITAL CITY   PTCLDY    19   0  43 W9        30.25R WCI   8
HARRISBURG     PTCLDY    19   4  51 NW18      30.25R WCI   4
YORK           PTCLDY    15   1  53 W6        30.24R WCI   6
$$

PAZ038>040-043-044-047-048-054-055-060>062-067>071-120400-
EASTERN PENNSYLVANIA

CITY           SKY/WX    TMP DP  RH WIND       PRES   REMARKS
SCRANTON       CLOUDY    14  -1  51 NW20      30.13R WCI  -3
MOUNT POCONO   MOCLDY     8  -3  61 NW12      30.01R WCI  -7
ALLENTOWN      MOCLDY    19   6  57 W13       30.19R WCI   6
QUAKERTOWN*    MOCLDY    18   1  49 NW3       30.19R
READING        CLEAR     18  -2  41 W12       30.22R WCI   5
LANCASTER      CLEAR     14   1  56 W5        30.24R WCI   6
COATESVILLE    CLEAR     16   5  62 W7        30.22R WCI   6
POTTSTOWN      PTCLDY    18  -1  43 W7        30.23R WCI   9
BLUE BELL        N/A     19   1  45 W9G16     30.21R WCI   9
DOYLESTOWN     CLOUDY    17   8  67 W3        30.18R
WILLOW GROVE   NOT AVBL
NORTH PHILA    CLEAR     22   1  40 W16G23    30.24R WCI   8
PHILADELPHIA   CLEAR     22  -2  35 W16       30.25R WCI   8
$$




USA.gov is the U.S. government's official web portal to all federal, state and local government web resources and services.